This is the latest recevied weather packets stored in our database for station/object TA3MHA. If no packets are shown the sender has not sent any weather packets the latest 10 day(s).
| Time | Temp. | Humidity | Pressure | Rain* | Wind** | Luminosity | Snow |
|---|---|---|---|---|---|---|---|
| 1777282501 | 18.33° C | 53% | - | 0 mm | - | 846 W/m² | - |
| 1777282201 | 17.78° C | 54% | - | 0 mm | - | 844 W/m² | - |
| 1777281901 | 18.33° C | 52% | - | 0 mm | - | 838 W/m² | - |
| 1777281601 | 17.78° C | 54% | - | 0 mm | - | 834 W/m² | - |
| 1777281301 | 17.78° C | 54% | - | 0 mm | - | 830 W/m² | - |
| 1777281001 | 17.78° C | 54% | - | 0 mm | - | 826 W/m² | - |
| 1777280701 | 17.78° C | 54% | - | 0 mm | - | 819 W/m² | - |
| 1777280401 | 17.78° C | 55% | - | 0 mm | - | 815 W/m² | - |
| 1777280101 | 17.78° C | 53% | - | 0 mm | - | 810 W/m² | - |
| 1777279800 | 17.22° C | 57% | - | 0 mm | - | 802 W/m² | - |
| 1777279500 | 17.22° C | 55% | - | 0 mm | - | 797 W/m² | - |
| 1777279200 | 17.22° C | 55% | - | 0 mm | - | 788 W/m² | - |
| 1777278900 | 17.22° C | 56% | - | 0 mm | - | 781 W/m² | - |
| 1777278601 | 17.22° C | 55% | - | 0 mm | - | 774 W/m² | - |
| 1777278301 | 17.22° C | 56% | - | 0 mm | - | 765 W/m² | - |
| 1777278000 | 16.67° C | 57% | - | 0 mm | - | 756 W/m² | - |
| 1777277701 | 16.67° C | 57% | - | 0 mm | - | 745 W/m² | - |
| 1777277400 | 16.67° C | 57% | - | 0 mm | - | 734 W/m² | - |
| 1777277101 | 16.67° C | 58% | - | 0 mm | - | 726 W/m² | - |
| 1777276801 | 16.11° C | 59% | - | 0 mm | - | 717 W/m² | - |
| 1777276500 | 16.11° C | 59% | - | 0 mm | - | 704 W/m² | - |
| 1777276200 | 16.11° C | 59% | - | 0 mm | - | 691 W/m² | - |
| 1777275901 | 15.56° C | 60% | - | 0 mm | - | 681 W/m² | - |
| 1777275601 | 15.56° C | 61% | - | 0 mm | - | 667 W/m² | - |
| 1777275301 | 15.56° C | 61% | - | 0 mm | - | 652 W/m² | - |
* Rain latest hour (hover to see other rain measurements)
** Current wind speed in m/s (hover to see current wind gust speed)